Regional Weather Roundup
Issued by NWS

Home | Current Version | Previous Version | Text Only | Print | Product List | Glossary Off
Versions: 1 2 3 4 5 6 7 8 9 10 11 12 13 14 15 16 17 18 19 20 21 22 23 24 25 26 27 28 29 30 31 32 33 34 35 36 37 38 39 40 41 42 43 44 45 46 47 48 49 50

000
ASUS43 KDMX 250408
RWRIA

WEATHER ROUNDUP FOR IOWA
NATIONAL WEATHER SERVICE DES MOINES IA
1100 PM CDT SAT SEP 24 2016

NOTE: "FAIR" INDICATES FEW OR NO CLOUDS BELOW 12,000 FEET WITH NO
SIGNIFICANT WEATHER AND/OR OBSTRUCTIONS TO VISIBILITY.

* - THESE STATIONS ARE NOT NWS STATIONS...THUS NOT UNDER NWS
QUALITY CONTROL.  THEY ALSO DO NOT REPORT WEATHER SUCH
AS PRECIPITATION OR FOG.

IAZ001>003-012>014-020>022-031>034-043>046-250500-
   NORTHWEST IOWA

CITY           SKY/WX    TMP DP  RH WIND       PRES   REMARKS
CARROLL *      CLOUDY    68  68 100 SE7       30.01R
CHEROKEE *     CLOUDY    68  68 100 S6        29.96F
DENISON *      CLOUDY    70  68  94 SE9       29.97R
LE MARS *      CLOUDY    70  68  94 SE10      29.94S
ORANGE CITY *  CLOUDY    70  68  94 S7        29.94F
SHELDON *      CLOUDY    68  68 100 S12       29.92F
SIOUX CITY     CLOUDY    72  71  97 SE12      29.93S
SPENCER        CLOUDY    68  67  96 S13       29.97R
STORM LAKE *   CLOUDY    66  66 100 S9        29.98F
$$

IAZ055>058-069>071-079>083-090>094-250500-
   SOUTHWEST IOWA

CITY           SKY/WX    TMP DP  RH WIND       PRES   REMARKS
ATLANTIC *     LGT RAIN  68  68 100 CALM      30.00S
AUDUBON *      LGT RAIN  68  64  88 SE3       30.02S
CLARINDA *       N/A     70  68  94 MISG      30.01F
COUNCIL BLFS * CLOUDY    68  68 100 SE9       29.99R
CRESTON *      LGT RAIN  68  68 100 SE10G21   30.01F
HARLAN  *      CLOUDY    68  68 100 SE6       30.02S
LAMONI         LGT RAIN  70  68  93 SW3       30.02F FOG
RED OAK *      HVY RAIN  68  68 100 SE6       30.00S
SHENANDOAH *   LGT RAIN  68  68 100 SE8       30.00R
$$

IAZ047>049-059>061-072>074-084-250500-
   CENTRAL IOWA

CITY           SKY/WX    TMP DP  RH WIND       PRES   REMARKS
AMES           LGT RAIN  68  68 100 E5        30.00F
ANKENY *         N/A    N/A N/A N/A MISG        N/A
BOONE *          N/A     68  68 100 SE8G15    30.00S
CHARITON *       N/A     75  70  83 SE6G12    30.00S
DES MOINES     TSTM      70  68  93 S15G21    30.03R FOG
GRINNELL*      CLOUDY    72  65  78 NW6G17    30.03R
KNOXVILLE *    CLOUDY    73  66  78 NW9       30.00S
MARSHALLTOWN   CLOUDY    71  69  93 N9        30.02R
NEWTON *       CLOUDY    70  68  94 NW3       30.02S FOG
PELLA *        MOCLDY    72  69  89 CALM      30.02R
PERRY *        RAIN      68  68  99 SE5       30.02R
$$

IAZ004>006-015-016-023>025-035-036-250500-
   NORTH CENTRAL IOWA

CITY           SKY/WX    TMP DP  RH WIND       PRES   REMARKS
ALGONA *       CLOUDY    68  66  94 S12       30.00S
CLARION *      CLOUDY    68  68 100 SE9       30.01S
ESTHERVILLE    MOCLDY    66  66 100 S17       29.97R
FORT DODGE *   CLOUDY    66  64  94 S5        29.99F
FOREST CITY *  RAIN      68  68 100 SE9       30.01S
WEBSTER CITY * CLOUDY    66  66 100 E7        29.98F
IOWA FALLS *   LGT RAIN  68  66  92 E7        30.04F
$$

IAZ007>011-017>019-026>030-037>042-050>054-066-250500-
   NORTHEAST IOWA

CITY           SKY/WX    TMP DP  RH WIND       PRES   REMARKS
CEDAR RAPIDS   CLOUDY    69  69 100 E8        30.03F FOG
CHARLES CITY * CLOUDY    68  68 100 S8        30.07R FOG
CLINTON *      CLEAR     69  66  90 E10       30.09R
DECORAH *      CLOUDY    66  66 100 SE10G20   30.05S
DUBUQUE        CLEAR     66  64  93 E6        30.10R
MONTICELLO *   CLOUDY    68  66  94 E7        30.06S FOG
OELWEIN *      CLOUDY    68  66  94 SE13      30.05F FOG
WATERLOO       MOCLDY    69  66  90 E7        30.02S FOG
$$

IAZ064-065-067-068-078-250500-
   EAST CENTRAL IOWA

CITY           SKY/WX    TMP DP  RH WIND       PRES   REMARKS
DAVENPORT      CLEAR     70  66  87 E7        30.07R
IOWA CITY      CLOUDY    71  68  90 SE5       30.04F
MT. PLEASANT * CLEAR     73  68  82 SE7       30.04F
MUSCATINE *    CLEAR     73  68  83 CALM      30.05R
QUAD CITIES    CLEAR     71  66  84 E7        30.06R
$$

IAZ062-063-075>077-085>089-095>099-250500-
   SOUTHEAST IOWA

CITY           SKY/WX    TMP DP  RH WIND       PRES   REMARKS
BURLINGTON     CLEAR     74  68  81 SE5       30.05R
FAIRFIELD *    CLOUDY    72  64  78 SE7       30.02F
FORT MADISON *   N/A     73  66  78 SE5       30.05F
KEOKUK *       CLEAR     72  66  83 E5        30.03F
OSKALOOSA *    CLOUDY    74  64  70 SE9       30.01F
CENTERVILLE *    N/A     75  66  73 SE8       30.03F
OTTUMWA        CLOUDY    77  64  64 SE8       30.01F
WASHINGTON *     N/A    N/A N/A N/A MISG        N/A
$$

ABBREVIATIONS USED IN REMARKS
   TC - TEMPERATURES IN CELSIUS
  WCI - WIND CHILL INDEX
   HX - HEAT INDEX
  VSB - VISIBILITY
$$





USA.gov is the U.S. government's official web portal to all federal, state and local government web resources and services.